Yeovilton, United Kingdom

10:20 AM BST on June 19, 2018 (GMT +0100)
Yeovil Radar Navy

Weather History for EGDY - October, 2017

Change the Weather History Date:

Monday, October 2, 2017

  Actual Average Record
Temperature  
Mean Temperature 56 °F -  
Max Temperature 61 °F 57 °F 77 °F (2011)
Min Temperature 50 °F 44 °F 37 °F (2016)
Degree Days  
Heating Degree Days 9    
Growing Degree Days 6 (Base 50)    
Moisture  
Dew Point 51 °F    
Average Humidity 78    
Maximum Humidity 94    
Minimum Humidity 54    
Precipitation  
Precipitation 0.01 in - - ()
Sea Level Pressure  
Sea Level Pressure 29.98 in    
Wind  
Wind Speed 11 mph ()    
Max Wind Speed 23 mph    
Max Gust Speed 34 mph    
Visibility 7.0 miles    
Events Rain    
Averages and records for this station are not official NWS values.
T = Trace of Precipitation, MM = Missing Value Source: Averaged Metar Reports

Daily Weather History Graph

Daily Weather History Graph

Search for Another Location

Airport or City:

Astronomy

Oct. 02, 2017 Rise Set
Actual Time 7:12 AM BST 6:45 PM BST
Civil Twilight 6:39 AM BST 7:18 PM BST
Nautical Twilight 6:01 AM BST 7:57 PM BST
Astronomical Twilight 5:22 AM BST 8:36 PM BST
Moon 5:39 PM BST (10/2) 2:58 AM BST (10/2)
Length of Visible Light 12h 39m
Length of Day
11h 33m
Waxing Gibbous, 88% of the Moon is Illuminated
Oct 2
Waxing Gibbous
Oct 5
Full
Oct 12
Last Quarter
Oct 19
New
Oct 27
First Quarter

Hourly Weather History & Observations

Time (BST) Temp. Dew Point Humidity Pressure Visibility Wind Dir Wind Speed Gust Speed Precip Events Conditions
12:50 AM 59.0 °F 53.6 °F 82% 29.86 in 6.2 mi WSW 12.7 mph - N/A   Mostly Cloudy
1:00 AM 59 °F 53 °F 73% 29.88 in 7 mi WSW 12.7 mph - -   Mostly Cloudy
1:50 AM 59.0 °F 51.8 °F 77% 29.89 in 6.2 mi WSW 12.7 mph - N/A   Mostly Cloudy
2:00 AM 59 °F 52 °F 70% 29.91 in 7 mi WSW 12.7 mph - -   Mostly Cloudy
2:50 AM 59.0 °F 51.8 °F 77% 29.89 in 6.2 mi WSW 15.0 mph - N/A   Scattered Clouds
3:00 AM 59 °F 51 °F 69% 29.91 in 7 mi WSW 15.0 mph - -   Partly Cloudy
4:00 AM 58 °F 51 °F 71% 29.91 in 9 mi West 13.8 mph - -   Mostly Cloudy
4:50 AM 59.0 °F 51.8 °F 77% 29.92 in 6.2 mi WSW 9.2 mph - N/A   Mostly Cloudy
5:00 AM 58 °F 52 °F 73% 29.92 in 9 mi WSW 9.2 mph - -   Overcast
5:50 AM 57.2 °F 50.0 °F 77% 29.92 in 6.2 mi West 10.4 mph - N/A   Mostly Cloudy
6:50 AM 57.2 °F 51.8 °F 82% 29.92 in 6.2 mi WSW 8.1 mph - N/A   Mostly Cloudy
7:50 AM 55.4 °F 51.8 °F 88% 29.95 in 6.2 mi WSW 8.1 mph - N/A   Partly Cloudy
8:00 AM 56 °F 51 °F 78% 29.95 in 7 mi WSW 8.1 mph - -   Scattered Clouds
8:50 AM 57.2 °F 50.0 °F 77% 29.95 in 6.2 mi WSW 11.5 mph - N/A   Partly Cloudy
9:00 AM 57 °F 51 °F 72% 29.96 in 7 mi WSW 11.5 mph - -   Scattered Clouds
9:50 AM 59.0 °F 50.0 °F 72% 29.98 in 6.2 mi West 16.1 mph - N/A   Mostly Cloudy
10:50 AM 60.8 °F 50.0 °F 68% 29.98 in 6.2 mi West 20.7 mph - N/A   Scattered Clouds
11:00 AM 61 °F 50 °F 57% 29.99 in 7 mi West 20.7 mph - -   Partly Cloudy
11:50 AM 60.8 °F 48.2 °F 63% 29.98 in 6.2 mi West 17.3 mph - N/A   Mostly Cloudy
12:00 PM 61 °F 49 °F 54% 29.98 in 9 mi West 17.3 mph - -   Mostly Cloudy
12:50 PM 60.8 °F 50.0 °F 68% 29.98 in 6.2 mi West 17.3 mph - N/A   Mostly Cloudy
1:00 PM 61 °F 49 °F 56% 30.00 in 12 mi West 17.3 mph - -   Mostly Cloudy
1:50 PM 60.8 °F 48.2 °F 63% 30.01 in 6.2 mi West 23.0 mph 34.5 mph N/A   Mostly Cloudy
2:50 PM 59.0 °F 48.2 °F 67% 29.98 in 6.2 mi West 13.8 mph - N/A Rain Light Rain
3:50 PM 59.0 °F 51.8 °F 77% 30.01 in 6.2 mi West 12.7 mph - N/A Rain Light Rain
4:00 PM 58 °F 52 °F 73% 30.01 in 7 mi West 12.7 mph - - Rain Light Rain
4:50 PM 55.4 °F 51.8 °F 88% 30.01 in 4.3 mi WNW 11.5 mph - N/A Rain Light Rain
5:00 PM 56 °F 51 °F 79% 30.02 in 4 mi WNW 11.5 mph - - Rain Light Rain
5:50 PM 53.6 °F 51.8 °F 94% 30.01 in 6.2 mi West 10.4 mph - N/A Rain Light Rain
6:00 PM 54 °F 52 °F 90% 30.03 in 7 mi West 10.4 mph - - Rain Light Rain
6:50 PM 53.6 °F 50.0 °F 88% 30.04 in 6.2 mi WSW 9.2 mph - N/A   Mostly Cloudy
7:50 PM 51.8 °F 50.0 °F 94% 30.04 in 6.2 mi WSW 10.4 mph - N/A   Mostly Cloudy
8:00 PM 53 °F 49 °F 83% 30.04 in 9 mi WSW 10.4 mph - -   Partly Cloudy
8:50 PM 51.8 °F 50.0 °F 94% 30.04 in - WSW 6.9 mph - N/A   Clear
9:00 PM 52 °F 49 °F 88% 30.04 in 9 mi WSW 6.9 mph - -   Scattered Clouds
9:50 PM 51.8 °F 50.0 °F 94% 30.04 in 6.2 mi WSW 9.2 mph - N/A Rain Light Rain
10:00 PM 52 °F 49 °F 87% 30.06 in 9 mi WSW 9.2 mph - - Rain Light Rain
10:50 PM 51.8 °F 50.0 °F 94% 30.06 in 6.2 mi West 10.4 mph - N/A   Scattered Clouds
11:00 PM 52 °F 50 °F 91% 30.07 in 12 mi West 10.4 mph - - Rain Light Rain
11:50 PM 50.0 °F 48.2 °F 94% 30.06 in 6.2 mi West 3.5 mph - N/A   Partly Cloudy